DW0967 Weather Reports


time (UTC)temp
C
wind
direction
speed
KPH
gust
KPH
rain 1hr
cm
rain 24hr
cm
rain mn
cm
humidity
%
barometer
mb
20260505121703 2 5 9.7 19.3 0.08 0.36 0.10 92 1015.6
20260505120704 2 10 11.3 19.3 0.05 0.33 0.08 92 1015.4
20260505120204 2 4 14.5 24.1 0.08 0.33 0.08 92 1015.3
20260505114204 2 11 16.1 27.4 0.05 0.30 0.05 92 1015.2
20260505113704 3 356 14.5 20.9 0.05 0.30 0.05 92 1015.2
20260505113203 3 15 16.1 32.2 0.05 0.30 0.05 92 1015.1
20260505111204 3 8 16.1 33.8 0.03 0.28 0.03 92 1014.8
20260505110703 3 21 14.5 29.0 0.03 0.28 0.03 92 1014.7
20260505110204 3 24 19.3 33.8 0.00 0.25 0.00 92 1014.9
20260505100703 5 15 19.3 32.2 0.00 0.25 0.00 92 1013.4
20260505093704 5 5 14.5 22.5 0.00 0.25 0.00 91 1013.3
20260505090704 5 16 8.0 25.7 0.00 0.25 0.00 91 1013.1
20260505090203 5 0 16.1 33.8 0.00 0.25 0.00 90 1013.1
20260505084204 7 11 22.5 33.8 0.00 0.25 0.00 89 1013.1
20260505081204 7 332 3.2 4.8 0.00 0.25 0.00 91 1013.0
20260505074203 7 205 0.0 1.6 0.00 0.25 0.00 91 1012.9
20260505073704 7 205 0.0 1.6 0.00 0.25 0.00 91 1012.9
20260505070704 7 204 0.0 1.6 0.00 0.25 0.00 90 1013.1
20260505064704 7 204 0.0 1.6 0.00 0.25 0.00 90 1013.3
20260505063704 7 205 0.0 1.6 0.00 0.25 0.00 90 1013.3
20260505063204 7 204 0.0 4.8 0.00 0.25 0.00 90 1013.2
20260505061204 7 206 0.0 1.6 0.00 0.25 0.00 90 1013.2
20260505060203 7 205 0.0 4.8 0.00 0.25 0.00 90 1013.3
20260505054704 7 206 3.2 4.8 0.00 0.25 0.25 90 1013.3
20260505053703 7 237 3.2 4.8 0.00 0.25 0.25 90 1013.2
20260505051204 7 305 1.6 4.8 0.08 0.25 0.25 90 1013.3
20260505050203 7 227 0.0 4.8 0.10 0.25 0.25 89 1013.6
20260505041204 8 284 1.6 4.8 0.13 0.18 0.18 88 1014.1
20260505040204 8 285 4.8 9.7 0.13 0.15 0.15 87 1014.1
20260505034704 8 291 0.0 3.2 0.13 0.13 0.13 85 1013.9
20260505034204 8 288 0.0 3.2 0.13 0.13 0.13 85 1013.9
20260505030704 10 351 20.9 32.2 0.03 0.03 0.03 76 1013.6
20260505024704 10 349 8.0 16.1 0.00 0.00 0.00 73 1013.2
20260505024204 10 346 9.7 19.3 0.00 0.00 0.00 72 1013.0
20260505023704 10 2 9.7 24.1 0.00 0.00 0.00 71 1012.9
20260505023203 10 2 11.3 19.3 0.00 0.00 0.00 70 1012.8
20260505021703 11 5 12.9 27.4 0.00 0.00 0.00 67 1012.4
20260505021203 11 43 11.3 22.5 0.00 0.00 0.00 69 1012.3
20260505020204 11 66 0.0 0.0 0.00 0.00 0.00 68 1012.0
20260505010704 11 131 1.6 4.8 0.00 0.00 0.00 68 1011.9
20260505004704 11 179 4.8 12.9 0.00 0.00 0.00 70 1011.9
20260505004203 11 170 6.4 12.9 0.00 0.00 0.00 69 1012.0
20260505003703 11 156 9.7 19.3 0.00 0.00 0.00 68 1012.0
20260505003204 12 155 14.5 25.7 0.00 0.00 0.00 66 1012.0
20260505001704 14 229 3.2 8.0 0.00 0.00 0.00 53 1012.3
20260505000703 15 278 4.8 9.7 0.00 0.00 0.00 46 1012.1
20260505000204 15 302 8.0 19.3 0.00 0.00 0.00 46 1011.9
20260504234704 15 336 11.3 16.1 0.00 0.00 0.00 46 1011.6
20260504234209 15 0 11.3 32.2 0.00 0.00 0.00 46 1011.4
20260504230204 15 348 22.5 37.0 0.00 0.00 0.00 45 1011.1
20260504224704 16 344 19.3 37.0 0.00 0.00 0.00 41 1011.1
20260504223204 15 4 19.3 33.8 0.00 0.00 0.00 44 1011.3
20260504221204 15 2 17.7 29.0 0.00 0.00 0.00 41 1011.2
20260504220704 16 356 25.7 38.6 0.00 0.00 0.00 40 1011.1
20260504220203 16 0 22.5 38.6 0.00 0.00 0.00 40 1010.8
20260504211704 19 124 4.8 11.3 0.00 0.00 0.00 31 1009.8
20260504203704 19 90 3.2 8.0 0.00 0.00 0.00 33 1010.7
20260504201704 17 39 14.5 27.4 0.00 0.00 0.00 40 1011.2
20260504200704 16 13 9.7 16.1 0.00 0.00 0.00 41 1011.5
20260504200204 16 315 14.5 20.9 0.00 0.00 0.00 41 1011.6
20260504194703 16 90 6.4 16.1 0.00 0.00 0.00 45 1011.1
20260504193204 16 60 4.8 14.5 0.00 0.00 0.00 40 1011.3
20260504191704 17 161 4.8 11.3 0.00 0.00 0.00 39 1011.8
20260504190704 16 204 6.4 14.5 0.00 0.00 0.00 37 1011.4
20260504184704 18 129 8.0 14.5 0.00 0.00 0.00 27 1010.4
20260504183704 18 58 8.0 16.1 0.00 0.00 0.00 27 1010.3
20260504180703 19 40 9.7 14.5 0.00 0.00 0.00 27 1010.1
20260504171704 20 297 9.7 19.3 0.00 0.00 0.00 26 1011.0
20260504150204 16 345 8.0 19.3 0.00 0.00 0.00 30 1012.0
20260504141203 14 319 9.7 16.1 0.00 0.00 0.00 30 1012.1
20260504130204 12 293 3.2 8.0 0.00 0.00 0.00 32 1011.7